TimeCDT,TemperatureF,Dew PointF,Humidity,Sea Level PressureIn,VisibilityMPH,Wind Direction,Wind SpeedMPH,Gust SpeedMPH,PrecipitationIn,Events,Conditions,WindDirDegrees,DateUTC
12:53 AM,57.9,46.9,67,30.01,10.0,SSE,6.9,-,N/A,,Clear,160,2013-09-15 05:53:00
1:53 AM,59.0,48.0,67,30.01,10.0,South,8.1,-,N/A,,Clear,180,2013-09-15 06:53:00
2:53 AM,54.0,46.9,77,30.01,10.0,SSW,5.8,-,N/A,,Clear,210,2013-09-15 07:53:00
3:53 AM,54.0,46.9,77,30.01,10.0,South,6.9,-,N/A,,Clear,190,2013-09-15 08:53:00
4:53 AM,57.0,46.9,69,30.01,10.0,South,9.2,-,N/A,,Clear,180,2013-09-15 09:53:00
5:53 AM,57.9,46.9,67,30.01,10.0,South,9.2,-,N/A,,Clear,190,2013-09-15 10:53:00
6:53 AM,57.0,46.0,67,30.02,10.0,South,9.2,-,N/A,,Clear,190,2013-09-15 11:53:00
7:53 AM,61.0,46.9,60,30.04,10.0,South,13.8,20.7,N/A,,Scattered Clouds,190,2013-09-15 12:53:00
8:53 AM,63.0,48.0,58,30.03,10.0,SSW,13.8,21.9,N/A,,Clear,200,2013-09-15 13:53:00
9:53 AM,69.1,48.9,49,30.04,10.0,SSW,16.1,21.9,N/A,,Clear,200,2013-09-15 14:53:00
10:53 AM,73.0,51.1,46,30.04,10.0,SSW,9.2,-,N/A,,Clear,200,2013-09-15 15:53:00
11:53 AM,77.0,53.1,43,30.04,10.0,South,10.4,-,N/A,,Scattered Clouds,180,2013-09-15 16:53:00
12:53 PM,79.0,55.0,44,30.03,10.0,WSW,5.8,-,N/A,,Scattered Clouds,240,2013-09-15 17:53:00
1:53 PM,81.0,57.0,44,30.02,10.0,South,6.9,-,N/A,,Mostly Cloudy,190,2013-09-15 18:53:00
2:53 PM,84.0,57.9,41,30.01,10.0,SSW,5.8,-,N/A,,Partly Cloudy,200,2013-09-15 19:53:00
3:53 PM,82.9,57.9,42,30.00,10.0,Variable,5.8,-,N/A,,Clear,0,2013-09-15 20:53:00
4:53 PM,82.9,60.1,46,30.00,10.0,SW,5.8,-,N/A,,Partly Cloudy,230,2013-09-15 21:53:00
5:53 PM,81.0,61.0,50,29.99,10.0,South,5.8,-,N/A,,Partly Cloudy,180,2013-09-15 22:53:00
6:23 PM,80.6,60.8,51,30.04,10.0,WSW,3.5,-,N/A,Thunderstorm,Partly Cloudy,240,2013-09-15 23:23:00
6:38 PM,78.8,60.8,54,30.02,10.0,South,5.8,-,N/A,,Mostly Cloudy,170,2013-09-15 23:38:00
6:53 PM,77.0,62.1,60,29.99,10.0,South,4.6,-,0.00,,Mostly Cloudy,170,2013-09-15 23:53:00
7:42 PM,69.8,66.2,88,30.04,10.0,NNE,4.6,-,0.01,Thunderstorm,Overcast,30,2013-09-16 00:42:00
7:53 PM,70.0,66.9,90,30.02,10.0,ENE,3.5,-,0.01,,Mostly Cloudy,60,2013-09-16 00:53:00
8:53 PM,68.0,66.0,93,30.05,10.0,NNE,6.9,-,0.00,,Mostly Cloudy,30,2013-09-16 01:53:00
9:53 PM,66.9,64.9,93,30.06,10.0,NNE,4.6,-,N/A,,Clear,20,2013-09-16 02:53:00
10:53 PM,66.9,64.9,93,30.09,10.0,NNE,4.6,-,N/A,,Overcast,20,2013-09-16 03:53:00
11:53 PM,66.0,66.0,100,30.09,4.0,NNE,8.1,-,0.10,Rain,Light Rain,30,2013-09-16 04:53:00